owner,sensor,date,latitude,longitude,vertical_datum,wind_speed,wind_to_direction,wind_speed_of_gust,qcFlag 
ADCP,ioos:station:wmo:42362:1,2009-01-16T21:45:00Z,27.7950,-90.6480,122.0,12.0,-9999.0,99.0,'11111222,99999999,11144222' 
ADCP,ioos:station:wmo:42362:1,2009-01-16T22:00:00Z,27.7950,-90.6480,122.0,10.0,-9999.0,99.0,'11111222,99999999,11144222' 
ADCP,ioos:station:wmo:42362:1,2009-01-16T22:15:00Z,27.7950,-90.6480,122.0,12.0,-9999.0,99.0,'11111222,99999999,11144222' 
ADCP,ioos:station:wmo:42362:1,2009-01-16T22:30:00Z,27.7950,-90.6480,122.0,11.0,-9999.0,99.0,'11111222,99999999,11144222' 
ADCP,ioos:station:wmo:42362:1,2009-01-16T22:45:00Z,27.7950,-90.6480,122.0,10.0,-9999.0,99.0,'11111222,99999999,11144222' 
ADCP,ioos:station:wmo:42362:1,2009-01-16T23:00:00Z,27.7950,-90.6480,122.0,11.0,-9999.0,99.0,'11111222,99999999,11144222' 
ADCP,ioos:station:wmo:42362:1,2009-01-16T23:15:00Z,27.7950,-90.6480,122.0,10.0,-9999.0,99.0,'11111222,99999999,11144222' 
ADCP,ioos:station:wmo:42362:1,2009-01-16T23:30:00Z,27.7950,-90.6480,122.0,10.0,-9999.0,99.0,'11111222,99999999,11144222' 
ADCP,ioos:station:wmo:42362:1,2009-01-16T23:45:00Z,27.7950,-90.6480,122.0,11.0,-9999.0,99.0,'11111222,99999999,11144222' 
ADCP,ioos:station:wmo:42362:1,2009-01-17T00:00:00Z,27.7950,-90.6480,122.0,9.0,-9999.0,99.0,'11111222,99999999,11144222' 
ADCP,ioos:station:wmo:42362:1,2009-01-17T00:15:00Z,27.7950,-90.6480,122.0,11.0,-9999.0,99.0,'11111222,99999999,11144222' 
ADCP,ioos:station:wmo:42362:1,2009-01-17T00:30:00Z,27.7950,-90.6480,122.0,9.0,-9999.0,99.0,'11111222,99999999,11144222' 
ADCP,ioos:station:wmo:42362:1,2009-01-17T00:45:00Z,27.7950,-90.6480,122.0,9.0,-9999.0,99.0,'11111222,99999999,11144222' 
ADCP,ioos:station:wmo:42362:1,2009-01-17T01:00:00Z,27.7950,-90.6480,122.0,10.0,-9999.0,99.0,'11111222,99999999,11144222' 
ADCP,ioos:station:wmo:42362:1,2009-01-17T01:15:00Z,27.7950,-90.6480,122.0,8.0,-9999.0,99.0,'11111222,99999999,11144222' 
ADCP,ioos:station:wmo:42362:1,2009-01-17T01:30:00Z,27.7950,-90.6480,122.0,8.0,-9999.0,99.0,'11111222,99999999,11144222' 
ADCP,ioos:station:wmo:42362:1,2009-01-17T01:45:00Z,27.7950,-90.6480,122.0,9.0,-9999.0,99.0,'11111222,99999999,11144222' 
ADCP,ioos:station:wmo:42362:1,2009-01-17T02:00:00Z,27.7950,-90.6480,122.0,8.0,-9999.0,99.0,'11111222,99999999,11144222' 
ADCP,ioos:station:wmo:42362:1,2009-01-17T02:15:00Z,27.7950,-90.6480,122.0,11.0,-9999.0,99.0,'11111222,99999999,11144222' 
ADCP,ioos:station:wmo:42362:1,2009-01-17T02:30:00Z,27.7950,-90.6480,122.0,10.0,-9999.0,99.0,'11111222,99999999,11144222' 
ADCP,ioos:station:wmo:42362:1,2009-01-17T02:45:00Z,27.7950,-90.6480,122.0,8.0,-9999.0,99.0,'11111222,99999999,11144222' 
ADCP,ioos:station:wmo:42362:1,2009-01-17T03:00:00Z,27.7950,-90.6480,122.0,8.0,-9999.0,99.0,'11111222,99999999,11144222' 
ADCP,ioos:station:wmo:42362:1,2009-01-17T03:15:00Z,27.7950,-90.6480,122.0,11.0,-9999.0,99.0,'11111222,99999999,11144222' 
ADCP,ioos:station:wmo:42362:1,2009-01-17T03:30:00Z,27.7950,-90.6480,122.0,8.0,-9999.0,99.0,'11111222,99999999,11144222' 
ADCP,ioos:station:wmo:42362:1,2009-01-17T03:45:00Z,27.7950,-90.6480,122.0,9.0,-9999.0,99.0,'11111222,99999999,11144222' 
ADCP,ioos:station:wmo:42362:1,2009-01-17T04:00:00Z,27.7950,-90.6480,122.0,6.0,-9999.0,99.0,'11111222,99999999,11144222' 
ADCP,ioos:station:wmo:42362:1,2009-01-17T04:15:00Z,27.7950,-90.6480,122.0,7.0,-9999.0,99.0,'11111222,99999999,11144222' 
ADCP,ioos:station:wmo:42362:1,2009-01-17T04:30:00Z,27.7950,-90.6480,122.0,7.0,-9999.0,99.0,'11111222,99999999,11144222' 
ADCP,ioos:station:wmo:42362:1,2009-01-17T04:45:00Z,27.7950,-90.6480,122.0,8.0,-9999.0,99.0,'11111222,99999999,11144222' 
ADCP,ioos:station:wmo:42362:1,2009-01-17T05:00:00Z,27.7950,-90.6480,122.0,8.0,-9999.0,99.0,'11111222,99999999,11144222' 
ADCP,ioos:station:wmo:42362:1,2009-01-17T05:15:00Z,27.7950,-90.6480,122.0,7.0,-9999.0,99.0,'11111222,99999999,11144222' 
ADCP,ioos:station:wmo:42362:1,2009-01-17T05:30:00Z,27.7950,-90.6480,122.0,6.0,-9999.0,99.0,'11111222,99999999,11144222' 
ADCP,ioos:station:wmo:42362:1,2009-01-17T05:45:00Z,27.7950,-90.6480,122.0,6.0,-9999.0,99.0,'11111222,99999999,11144222' 
ADCP,ioos:station:wmo:42362:1,2009-01-17T06:00:00Z,27.7950,-90.6480,122.0,5.0,-9999.0,99.0,'11111222,99999999,11144222' 
ADCP,ioos:station:wmo:42362:1,2009-01-17T06:15:00Z,27.7950,-90.6480,122.0,5.0,-9999.0,99.0,'11111222,99999999,11144222' 
ADCP,ioos:station:wmo:42362:1,2009-01-17T06:30:00Z,27.7950,-90.6480,122.0,7.0,-9999.0,99.0,'11111222,99999999,11144222' 
ADCP,ioos:station:wmo:42362:1,2009-01-17T06:45:00Z,27.7950,-90.6480,122.0,5.0,-9999.0,99.0,'11111222,99999999,11144222' 
ADCP,ioos:station:wmo:42362:1,2009-01-17T07:00:00Z,27.7950,-90.6480,122.0,6.0,-9999.0,99.0,'11111222,99999999,11144222' 
ADCP,ioos:station:wmo:42362:1,2009-01-17T07:15:00Z,27.7950,-90.6480,122.0,6.0,-9999.0,99.0,'11111222,99999999,11144222' 
ADCP,ioos:station:wmo:42362:1,2009-01-17T07:30:00Z,27.7950,-90.6480,122.0,4.0,-9999.0,99.0,'11111222,99999999,11144222' 
ADCP,ioos:station:wmo:42362:1,2009-01-17T07:45:00Z,27.7950,-90.6480,122.0,5.0,-9999.0,99.0,'11111222,99999999,11144222' 
ADCP,ioos:station:wmo:42362:1,2009-01-17T08:00:00Z,27.7950,-90.6480,122.0,4.0,-9999.0,99.0,'11111222,99999999,11144222' 
ADCP,ioos:station:wmo:42362:1,2009-01-17T08:15:00Z,27.7950,-90.6480,122.0,4.0,-9999.0,99.0,'11111222,99999999,11144222' 
ADCP,ioos:station:wmo:42362:1,2009-01-17T08:30:00Z,27.7950,-90.6480,122.0,5.0,-9999.0,99.0,'11111222,99999999,11144222' 
ADCP,ioos:station:wmo:42362:1,2009-01-17T08:45:00Z,27.7950,-90.6480,122.0,3.0,-9999.0,99.0,'11111222,99999999,11144222' 
ADCP,ioos:station:wmo:42362:1,2009-01-17T09:00:00Z,27.7950,-90.6480,122.0,5.0,-9999.0,99.0,'11111222,99999999,11144222' 
ADCP,ioos:station:wmo:42362:1,2009-01-17T09:15:00Z,27.7950,-90.6480,122.0,6.0,-9999.0,99.0,'11111222,99999999,11144222' 
ADCP,ioos:station:wmo:42362:1,2009-01-17T09:30:00Z,27.7950,-90.6480,122.0,4.0,-9999.0,99.0,'11111222,99999999,11144222' 
ADCP,ioos:station:wmo:42362:1,2009-01-17T09:45:00Z,27.7950,-90.6480,122.0,6.0,-9999.0,99.0,'11111222,99999999,11144222' 
ADCP,ioos:station:wmo:42362:1,2009-01-17T10:00:00Z,27.7950,-90.6480,122.0,8.0,-9999.0,99.0,'11111222,99999999,11144222' 
ADCP,ioos:station:wmo:42362:1,2009-01-17T10:15:00Z,27.7950,-90.6480,122.0,7.0,-9999.0,99.0,'11111222,99999999,11144222' 
ADCP,ioos:station:wmo:42362:1,2009-01-17T10:30:00Z,27.7950,-90.6480,122.0,6.0,-9999.0,99.0,'11111222,99999999,11144222' 
ADCP,ioos:station:wmo:42362:1,2009-01-17T10:45:00Z,27.7950,-90.6480,122.0,10.0,-9999.0,99.0,'11111222,99999999,11144222' 
ADCP,ioos:station:wmo:42362:1,2009-01-17T11:00:00Z,27.7950,-90.6480,122.0,7.0,-9999.0,99.0,'11111222,99999999,11144222' 
ADCP,ioos:station:wmo:42362:1,2009-01-17T11:15:00Z,27.7950,-90.6480,122.0,8.0,-9999.0,99.0,'11111222,99999999,11144222' 
ADCP,ioos:station:wmo:42362:1,2009-01-17T11:30:00Z,27.7950,-90.6480,122.0,11.0,-9999.0,99.0,'11111222,99999999,11144222' 
ADCP,ioos:station:wmo:42362:1,2009-01-17T11:45:00Z,27.7950,-90.6480,122.0,8.0,-9999.0,99.0,'11111222,99999999,11144222' 
ADCP,ioos:station:wmo:42362:1,2009-01-17T12:00:00Z,27.7950,-90.6480,122.0,8.0,-9999.0,99.0,'11111222,99999999,11144222' 
ADCP,ioos:station:wmo:42362:1,2009-01-17T12:15:00Z,27.7950,-90.6480,122.0,8.0,-9999.0,99.0,'11111222,99999999,11144222' 
ADCP,ioos:station:wmo:42362:1,2009-01-17T12:30:00Z,27.7950,-90.6480,122.0,6.0,-9999.0,99.0,'11111222,99999999,11144222' 
ADCP,ioos:station:wmo:42362:1,2009-01-17T12:45:00Z,27.7950,-90.6480,122.0,6.0,-9999.0,99.0,'11111222,99999999,11144222' 
ADCP,ioos:station:wmo:42362:1,2009-01-17T13:00:00Z,27.7950,-90.6480,122.0,6.0,-9999.0,99.0,'11111222,99999999,11144222' 
ADCP,ioos:station:wmo:42362:1,2009-01-17T13:15:00Z,27.7950,-90.6480,122.0,7.0,-9999.0,99.0,'11111222,99999999,11144222' 
ADCP,ioos:station:wmo:42362:1,2009-01-17T13:30:00Z,27.7950,-90.6480,122.0,7.0,-9999.0,99.0,'11111222,99999999,11144222' 
ADCP,ioos:station:wmo:42362:1,2009-01-17T13:45:00Z,27.7950,-90.6480,122.0,6.0,-9999.0,99.0,'11111222,99999999,11144222' 
ADCP,ioos:station:wmo:42362:1,2009-01-17T14:00:00Z,27.7950,-90.6480,122.0,6.0,-9999.0,99.0,'11111222,99999999,11144222' 
ADCP,ioos:station:wmo:42362:1,2009-01-17T14:15:00Z,27.7950,-90.6480,122.0,6.0,-9999.0,99.0,'11111222,99999999,11144222' 
ADCP,ioos:station:wmo:42362:1,2009-01-17T14:30:00Z,27.7950,-90.6480,122.0,6.0,-9999.0,99.0,'11111222,99999999,11144222' 
ADCP,ioos:station:wmo:42362:1,2009-01-17T15:00:00Z,27.7950,-90.6480,122.0,5.0,-9999.0,99.0,'11111222,99999999,11144222' 
ADCP,ioos:station:wmo:42362:1,2009-01-17T15:15:00Z,27.7950,-90.6480,122.0,6.0,-9999.0,99.0,'11111222,99999999,11144222' 
ADCP,ioos:station:wmo:42362:1,2009-01-17T15:30:00Z,27.7950,-90.6480,122.0,4.0,-9999.0,99.0,'11111222,99999999,11144222' 
ADCP,ioos:station:wmo:42362:1,2009-01-17T15:45:00Z,27.7950,-90.6480,122.0,4.0,-9999.0,99.0,'11111222,99999999,11144222' 
ADCP,ioos:station:wmo:42362:1,2009-01-17T16:00:00Z,27.7950,-90.6480,122.0,7.0,-9999.0,99.0,'11111222,99999999,11144222' 
ADCP,ioos:station:wmo:42362:1,2009-01-17T16:15:00Z,27.7950,-90.6480,122.0,6.0,-9999.0,99.0,'11111222,99999999,11144222' 
ADCP,ioos:station:wmo:42362:1,2009-01-17T16:45:00Z,27.7950,-90.6480,122.0,4.0,-9999.0,99.0,'11111222,99999999,11144222' 
ADCP,ioos:station:wmo:42362:1,2009-01-17T17:00:00Z,27.7950,-90.6480,122.0,5.0,-9999.0,99.0,'11111222,99999999,11144222' 
ADCP,ioos:station:wmo:42362:1,2009-01-17T17:15:00Z,27.7950,-90.6480,122.0,6.0,-9999.0,99.0,'11111222,99999999,11144222' 
ADCP,ioos:station:wmo:42362:1,2009-01-17T17:30:00Z,27.7950,-90.6480,122.0,5.0,-9999.0,99.0,'11111222,99999999,11144222' 
ADCP,ioos:station:wmo:42362:1,2009-01-17T17:45:00Z,27.7950,-90.6480,122.0,4.0,-9999.0,99.0,'11111222,99999999,11144222' 
ADCP,ioos:station:wmo:42362:1,2009-01-17T18:00:00Z,27.7950,-90.6480,122.0,6.0,-9999.0,99.0,'11111222,99999999,11144222' 
ADCP,ioos:station:wmo:42362:1,2009-01-17T18:15:00Z,27.7950,-90.6480,122.0,6.0,-9999.0,99.0,'11111222,99999999,11144222' 
ADCP,ioos:station:wmo:42362:1,2009-01-17T18:30:00Z,27.7950,-90.6480,122.0,5.0,-9999.0,99.0,'11111222,99999999,11144222' 
ADCP,ioos:station:wmo:42362:1,2009-01-17T18:45:00Z,27.7950,-90.6480,122.0,5.0,-9999.0,99.0,'11111222,99999999,11144222' 
ADCP,ioos:station:wmo:42362:1,2009-01-17T19:00:00Z,27.7950,-90.6480,122.0,4.0,-9999.0,99.0,'11111222,99999999,11144222' 
ADCP,ioos:station:wmo:42362:1,2009-01-17T19:15:00Z,27.7950,-90.6480,122.0,6.0,-9999.0,99.0,'11111222,99999999,11144222' 
ADCP,ioos:station:wmo:42362:1,2009-01-17T19:30:00Z,27.7950,-90.6480,122.0,5.0,-9999.0,99.0,'11111222,99999999,11144222' 
ADCP,ioos:station:wmo:42362:1,2009-01-17T19:45:00Z,27.7950,-90.6480,122.0,5.0,-9999.0,99.0,'11111222,99999999,11144222' 
ADCP,ioos:station:wmo:42362:1,2009-01-17T20:00:00Z,27.7950,-90.6480,122.0,4.0,-9999.0,99.0,'11111222,99999999,11144222' 
ADCP,ioos:station:wmo:42362:1,2009-01-17T20:15:00Z,27.7950,-90.6480,122.0,6.0,-9999.0,99.0,'11111222,99999999,11144222' 
ADCP,ioos:station:wmo:42362:1,2009-01-17T20:30:00Z,27.7950,-90.6480,122.0,6.0,-9999.0,99.0,'11111222,99999999,11144222' 
ADCP,ioos:station:wmo:42362:1,2009-01-17T20:45:00Z,27.7950,-90.6480,122.0,7.0,-9999.0,99.0,'11111222,99999999,11144222' 
ADCP,ioos:station:wmo:42362:1,2009-01-17T21:00:00Z,27.7950,-90.6480,122.0,7.0,-9999.0,99.0,'11111222,99999999,11144222' 
ADCP,ioos:station:wmo:42362:1,2009-01-17T21:15:00Z,27.7950,-90.6480,122.0,6.0,-9999.0,99.0,'11111222,99999999,11144222' 
ADCP,ioos:station:wmo:42362:1,2009-01-17T21:30:00Z,27.7950,-90.6480,122.0,7.0,-9999.0,99.0,'11111222,99999999,11144222' 
ADCP,ioos:station:wmo:42362:1,2009-01-17T21:45:00Z,27.7950,-90.6480,122.0,6.0,-9999.0,99.0,'11111222,99999999,11144222' 
ADCP,ioos:station:wmo:42362:1,2009-01-17T22:00:00Z,27.7950,-90.6480,122.0,7.0,-9999.0,99.0,'11111222,99999999,11144222' 
ADCP,ioos:station:wmo:42362:1,2009-01-17T22:15:00Z,27.7950,-90.6480,122.0,6.0,-9999.0,99.0,'11111222,99999999,11144222' 
ADCP,ioos:station:wmo:42362:1,2009-01-17T22:30:00Z,27.7950,-90.6480,122.0,6.0,-9999.0,99.0,'11111222,99999999,11144222' 
ADCP,ioos:station:wmo:42362:1,2009-01-17T22:45:00Z,27.7950,-90.6480,122.0,6.0,-9999.0,99.0,'11111222,99999999,11144222' 
ADCP,ioos:station:wmo:42362:1,2009-01-17T23:00:00Z,27.7950,-90.6480,122.0,6.0,-9999.0,99.0,'11111222,99999999,11144222' 
ADCP,ioos:station:wmo:42362:1,2009-01-17T23:15:00Z,27.7950,-90.6480,122.0,6.0,-9999.0,99.0,'11111222,99999999,11144222' 
ADCP,ioos:station:wmo:42362:1,2009-01-17T23:30:00Z,27.7950,-90.6480,122.0,6.0,-9999.0,99.0,'11111222,99999999,11144222' 
ADCP,ioos:station:wmo:42362:1,2009-01-17T23:45:00Z,27.7950,-90.6480,122.0,7.0,-9999.0,99.0,'11111222,99999999,11144222' 
ADCP,ioos:station:wmo:42362:1,2009-01-18T00:00:00Z,27.7950,-90.6480,122.0,7.0,-9999.0,99.0,'11111222,99999999,11144222' 
ADCP,ioos:station:wmo:42362:1,2009-01-18T00:15:00Z,27.7950,-90.6480,122.0,3.0,-9999.0,99.0,'11111222,99999999,11144222' 
ADCP,ioos:station:wmo:42362:1,2009-01-18T00:30:00Z,27.7950,-90.6480,122.0,5.0,-9999.0,99.0,'11111222,99999999,11144222' 
ADCP,ioos:station:wmo:42362:1,2009-01-18T00:45:00Z,27.7950,-90.6480,122.0,7.0,-9999.0,99.0,'11111222,99999999,11144222' 
ADCP,ioos:station:wmo:42362:1,2009-01-18T01:00:00Z,27.7950,-90.6480,122.0,4.0,-9999.0,99.0,'11111222,99999999,11144222' 
ADCP,ioos:station:wmo:42362:1,2009-01-18T01:15:00Z,27.7950,-90.6480,122.0,8.0,-9999.0,99.0,'11111222,99999999,11144222' 
ADCP,ioos:station:wmo:42362:1,2009-01-18T01:30:00Z,27.7950,-90.6480,122.0,3.0,-9999.0,99.0,'11111222,99999999,11144222' 
ADCP,ioos:station:wmo:42362:1,2009-01-18T01:45:00Z,27.7950,-90.6480,122.0,7.0,-9999.0,99.0,'11111222,99999999,11144222' 
ADCP,ioos:station:wmo:42362:1,2009-01-18T02:00:00Z,27.7950,-90.6480,122.0,7.0,-9999.0,99.0,'11111222,99999999,11144222' 
ADCP,ioos:station:wmo:42362:1,2009-01-18T02:15:00Z,27.7950,-90.6480,122.0,5.0,-9999.0,99.0,'11111222,99999999,11144222' 
ADCP,ioos:station:wmo:42362:1,2009-01-18T02:30:00Z,27.7950,-90.6480,122.0,4.0,-9999.0,99.0,'11111222,99999999,11144222' 
ADCP,ioos:station:wmo:42362:1,2009-01-18T02:45:00Z,27.7950,-90.6480,122.0,7.0,-9999.0,99.0,'11111222,99999999,11144222' 
ADCP,ioos:station:wmo:42362:1,2009-01-18T03:15:00Z,27.7950,-90.6480,122.0,6.0,-9999.0,99.0,'11111222,99999999,11144222' 
ADCP,ioos:station:wmo:42362:1,2009-01-18T03:30:00Z,27.7950,-90.6480,122.0,7.0,-9999.0,99.0,'11111222,99999999,11144222' 
ADCP,ioos:station:wmo:42362:1,2009-01-18T03:45:00Z,27.7950,-90.6480,122.0,7.0,-9999.0,99.0,'11111222,99999999,11144222' 
ADCP,ioos:station:wmo:42362:1,2009-01-18T04:00:00Z,27.7950,-90.6480,122.0,7.0,-9999.0,99.0,'11111222,99999999,11144222' 
ADCP,ioos:station:wmo:42362:1,2009-01-18T04:15:00Z,27.7950,-90.6480,122.0,7.0,-9999.0,99.0,'11111222,99999999,11144222' 
ADCP,ioos:station:wmo:42362:1,2009-01-18T04:30:00Z,27.7950,-90.6480,122.0,8.0,-9999.0,99.0,'11111222,99999999,11144222' 
ADCP,ioos:station:wmo:42362:1,2009-01-18T04:45:00Z,27.7950,-90.6480,122.0,7.0,-9999.0,99.0,'11111222,99999999,11144222' 
ADCP,ioos:station:wmo:42362:1,2009-01-18T05:00:00Z,27.7950,-90.6480,122.0,9.0,-9999.0,99.0,'11111222,99999999,11144222' 
ADCP,ioos:station:wmo:42362:1,2009-01-18T05:15:00Z,27.7950,-90.6480,122.0,8.0,-9999.0,99.0,'11111222,99999999,11144222' 
ADCP,ioos:station:wmo:42362:1,2009-01-18T05:30:00Z,27.7950,-90.6480,122.0,9.0,-9999.0,99.0,'11111222,99999999,11144222' 
ADCP,ioos:station:wmo:42362:1,2009-01-18T05:45:00Z,27.7950,-90.6480,122.0,9.0,-9999.0,99.0,'11111222,99999999,11144222' 
ADCP,ioos:station:wmo:42362:1,2009-01-18T06:00:00Z,27.7950,-90.6480,122.0,9.0,-9999.0,99.0,'11111222,99999999,11144222' 
ADCP,ioos:station:wmo:42362:1,2009-01-18T06:15:00Z,27.7950,-90.6480,122.0,8.0,-9999.0,99.0,'11111222,99999999,11144222' 
ADCP,ioos:station:wmo:42362:1,2009-01-18T06:30:00Z,27.7950,-90.6480,122.0,7.0,-9999.0,99.0,'11111222,99999999,11144222' 
ADCP,ioos:station:wmo:42362:1,2009-01-18T06:45:00Z,27.7950,-90.6480,122.0,9.0,-9999.0,99.0,'11111222,99999999,11144222' 
ADCP,ioos:station:wmo:42362:1,2009-01-18T07:00:00Z,27.7950,-90.6480,122.0,10.0,-9999.0,99.0,'11111222,99999999,11144222' 
ADCP,ioos:station:wmo:42362:1,2009-01-18T07:15:00Z,27.7950,-90.6480,122.0,10.0,-9999.0,99.0,'11111222,99999999,11144222' 
ADCP,ioos:station:wmo:42362:1,2009-01-18T07:30:00Z,27.7950,-90.6480,122.0,8.0,-9999.0,99.0,'11111222,99999999,11144222' 
ADCP,ioos:station:wmo:42362:1,2009-01-18T07:45:00Z,27.7950,-90.6480,122.0,9.0,-9999.0,99.0,'11111222,99999999,11144222' 
ADCP,ioos:station:wmo:42362:1,2009-01-18T08:00:00Z,27.7950,-90.6480,122.0,11.0,-9999.0,99.0,'11111222,99999999,11144222' 
ADCP,ioos:station:wmo:42362:1,2009-01-18T08:15:00Z,27.7950,-90.6480,122.0,9.0,-9999.0,99.0,'11111222,99999999,11144222' 
ADCP,ioos:station:wmo:42362:1,2009-01-18T08:30:00Z,27.7950,-90.6480,122.0,9.0,-9999.0,99.0,'11111222,99999999,11144222' 
ADCP,ioos:station:wmo:42362:1,2009-01-18T08:45:00Z,27.7950,-90.6480,122.0,10.0,-9999.0,99.0,'11111222,99999999,11144222' 
ADCP,ioos:station:wmo:42362:1,2009-01-18T09:00:00Z,27.7950,-90.6480,122.0,9.0,-9999.0,99.0,'11111222,99999999,11144222' 
ADCP,ioos:station:wmo:42362:1,2009-01-18T09:15:00Z,27.7950,-90.6480,122.0,9.0,-9999.0,99.0,'11111222,99999999,11144222' 
ADCP,ioos:station:wmo:42362:1,2009-01-18T09:30:00Z,27.7950,-90.6480,122.0,8.0,-9999.0,99.0,'11111222,99999999,11144222' 
ADCP,ioos:station:wmo:42362:1,2009-01-18T09:45:00Z,27.7950,-90.6480,122.0,8.0,-9999.0,99.0,'11111222,99999999,11144222' 
ADCP,ioos:station:wmo:42362:1,2009-01-18T10:00:00Z,27.7950,-90.6480,122.0,11.0,-9999.0,99.0,'11111222,99999999,11144222' 
ADCP,ioos:station:wmo:42362:1,2009-01-18T10:15:00Z,27.7950,-90.6480,122.0,12.0,-9999.0,99.0,'11111222,99999999,11144222' 
ADCP,ioos:station:wmo:42362:1,2009-01-18T10:30:00Z,27.7950,-90.6480,122.0,10.0,-9999.0,99.0,'11111222,99999999,11144222' 
ADCP,ioos:station:wmo:42362:1,2009-01-18T10:45:00Z,27.7950,-90.6480,122.0,11.0,-9999.0,99.0,'11111222,99999999,11144222' 
ADCP,ioos:station:wmo:42362:1,2009-01-18T11:00:00Z,27.7950,-90.6480,122.0,11.0,-9999.0,99.0,'11111222,99999999,11144222' 
ADCP,ioos:station:wmo:42362:1,2009-01-18T11:15:00Z,27.7950,-90.6480,122.0,12.0,-9999.0,99.0,'11111222,99999999,11144222' 
ADCP,ioos:station:wmo:42362:1,2009-01-18T11:30:00Z,27.7950,-90.6480,122.0,11.0,-9999.0,99.0,'11111222,99999999,11144222' 
ADCP,ioos:station:wmo:42362:1,2009-01-18T11:45:00Z,27.7950,-90.6480,122.0,11.0,-9999.0,99.0,'11111222,99999999,11144222' 
ADCP,ioos:station:wmo:42362:1,2009-01-18T12:00:00Z,27.7950,-90.6480,122.0,11.0,-9999.0,99.0,'11111222,99999999,11144222' 
ADCP,ioos:station:wmo:42362:1,2009-01-18T12:15:00Z,27.7950,-90.6480,122.0,12.0,-9999.0,99.0,'11111222,99999999,11144222' 
ADCP,ioos:station:wmo:42362:1,2009-01-18T12:30:00Z,27.7950,-90.6480,122.0,13.0,-9999.0,99.0,'11111222,99999999,11144222' 
ADCP,ioos:station:wmo:42362:1,2009-01-18T12:45:00Z,27.7950,-90.6480,122.0,9.0,-9999.0,99.0,'11111222,99999999,11144222' 
ADCP,ioos:station:wmo:42362:1,2009-01-18T13:00:00Z,27.7950,-90.6480,122.0,13.0,-9999.0,99.0,'11111222,99999999,11144222' 
ADCP,ioos:station:wmo:42362:1,2009-01-18T13:15:00Z,27.7950,-90.6480,122.0,13.0,-9999.0,99.0,'11111222,99999999,11144222' 
ADCP,ioos:station:wmo:42362:1,2009-01-18T13:30:00Z,27.7950,-90.6480,122.0,15.0,-9999.0,99.0,'11111222,99999999,11144222' 
ADCP,ioos:station:wmo:42362:1,2009-01-18T13:45:00Z,27.7950,-90.6480,122.0,15.0,-9999.0,99.0,'11111222,99999999,11144222' 
ADCP,ioos:station:wmo:42362:1,2009-01-18T14:00:00Z,27.7950,-90.6480,122.0,15.0,-9999.0,99.0,'11111222,99999999,11144222' 
ADCP,ioos:station:wmo:42362:1,2009-01-18T14:15:00Z,27.7950,-90.6480,122.0,15.0,-9999.0,99.0,'11111222,99999999,11144222' 
ADCP,ioos:station:wmo:42362:1,2009-01-18T14:45:00Z,27.7950,-90.6480,122.0,14.0,-9999.0,99.0,'11111222,99999999,11144222' 
ADCP,ioos:station:wmo:42362:1,2009-01-18T15:00:00Z,27.7950,-90.6480,122.0,15.0,-9999.0,99.0,'11111222,99999999,11144222' 
ADCP,ioos:station:wmo:42362:1,2009-01-18T15:15:00Z,27.7950,-90.6480,122.0,16.0,-9999.0,99.0,'11111222,99999999,11144222' 
ADCP,ioos:station:wmo:42362:1,2009-01-18T15:30:00Z,27.7950,-90.6480,122.0,16.0,-9999.0,99.0,'11111222,99999999,11144222' 
ADCP,ioos:station:wmo:42362:1,2009-01-18T15:45:00Z,27.7950,-90.6480,122.0,16.0,-9999.0,99.0,'11111222,99999999,11144222' 
ADCP,ioos:station:wmo:42362:1,2009-01-18T16:00:00Z,27.7950,-90.6480,122.0,19.0,-9999.0,99.0,'11111222,99999999,11144222' 
ADCP,ioos:station:wmo:42362:1,2009-01-18T16:15:00Z,27.7950,-90.6480,122.0,20.0,-9999.0,99.0,'11111222,99999999,11144222' 
ADCP,ioos:station:wmo:42362:1,2009-01-18T16:30:00Z,27.7950,-90.6480,122.0,21.0,-9999.0,99.0,'11111222,99999999,11144222' 
ADCP,ioos:station:wmo:42362:1,2009-01-18T16:45:00Z,27.7950,-90.6480,122.0,16.0,-9999.0,99.0,'11111222,99999999,11144222' 
ADCP,ioos:station:wmo:42362:1,2009-01-18T17:00:00Z,27.7950,-90.6480,122.0,18.0,-9999.0,99.0,'11111222,99999999,11144222' 
ADCP,ioos:station:wmo:42362:1,2009-01-18T17:15:00Z,27.7950,-90.6480,122.0,15.0,-9999.0,99.0,'11111222,99999999,11144222' 
ADCP,ioos:station:wmo:42362:1,2009-01-18T17:30:00Z,27.7950,-90.6480,122.0,14.0,-9999.0,99.0,'11111222,99999999,11144222' 
ADCP,ioos:station:wmo:42362:1,2009-01-18T17:45:00Z,27.7950,-90.6480,122.0,12.0,-9999.0,99.0,'11111222,99999999,11144222' 
ADCP,ioos:station:wmo:42362:1,2009-01-18T18:00:00Z,27.7950,-90.6480,122.0,14.0,-9999.0,99.0,'11111222,99999999,11144222' 
ADCP,ioos:station:wmo:42362:1,2009-01-18T18:15:00Z,27.7950,-90.6480,122.0,13.0,-9999.0,99.0,'11111222,99999999,11144222' 
ADCP,ioos:station:wmo:42362:1,2009-01-18T18:30:00Z,27.7950,-90.6480,122.0,17.0,-9999.0,99.0,'11111222,99999999,11144222' 
ADCP,ioos:station:wmo:42362:1,2009-01-18T19:00:00Z,27.7950,-90.6480,122.0,18.0,-9999.0,99.0,'11111222,99999999,11144222' 
ADCP,ioos:station:wmo:42362:1,2009-01-18T19:15:00Z,27.7950,-90.6480,122.0,18.0,-9999.0,99.0,'11111222,99999999,11144222' 
ADCP,ioos:station:wmo:42362:1,2009-01-18T19:30:00Z,27.7950,-90.6480,122.0,19.0,-9999.0,99.0,'11111222,99999999,11144222' 
ADCP,ioos:station:wmo:42362:1,2009-01-18T19:45:00Z,27.7950,-90.6480,122.0,16.0,-9999.0,99.0,'11111222,99999999,11144222' 
ADCP,ioos:station:wmo:42362:1,2009-01-18T20:00:00Z,27.7950,-90.6480,122.0,15.0,-9999.0,99.0,'11111222,99999999,11144222' 
ADCP,ioos:station:wmo:42362:1,2009-01-18T20:15:00Z,27.7950,-90.6480,122.0,15.0,-9999.0,99.0,'11111222,99999999,11144222' 
ADCP,ioos:station:wmo:42362:1,2009-01-18T20:30:00Z,27.7950,-90.6480,122.0,15.0,-9999.0,99.0,'11111222,99999999,11144222' 
ADCP,ioos:station:wmo:42362:1,2009-01-18T20:45:00Z,27.7950,-90.6480,122.0,14.0,-9999.0,99.0,'11111222,99999999,11144222' 
ADCP,ioos:station:wmo:42362:1,2009-01-18T21:00:00Z,27.7950,-90.6480,122.0,13.0,-9999.0,99.0,'11111222,99999999,11144222' 
ADCP,ioos:station:wmo:42362:1,2009-01-18T21:15:00Z,27.7950,-90.6480,122.0,13.0,-9999.0,99.0,'11111222,99999999,11144222' 
ADCP,ioos:station:wmo:42362:1,2009-01-18T21:30:00Z,27.7950,-90.6480,122.0,13.0,-9999.0,99.0,'11111222,99999999,11144222' 
ADCP,ioos:station:wmo:42362:1,2009-01-18T21:45:00Z,27.7950,-90.6480,122.0,15.0,-9999.0,99.0,'11111222,99999999,11144222' 
ADCP,ioos:station:wmo:42362:1,2009-01-18T22:00:00Z,27.7950,-90.6480,122.0,16.0,-9999.0,99.0,'11111222,99999999,11144222' 
ADCP,ioos:station:wmo:42362:1,2009-01-18T22:15:00Z,27.7950,-90.6480,122.0,14.0,-9999.0,99.0,'11111222,99999999,11144222' 
ADCP,ioos:station:wmo:42362:1,2009-01-18T22:30:00Z,27.7950,-90.6480,122.0,14.0,-9999.0,99.0,'11111222,99999999,11144222' 
ADCP,ioos:station:wmo:42362:1,2009-01-18T22:45:00Z,27.7950,-90.6480,122.0,14.0,-9999.0,99.0,'11111222,99999999,11144222' 
ADCP,ioos:station:wmo:42362:1,2009-01-18T23:00:00Z,27.7950,-90.6480,122.0,13.0,-9999.0,99.0,'11111222,99999999,11144222' 
ADCP,ioos:station:wmo:42362:1,2009-01-18T23:15:00Z,27.7950,-90.6480,122.0,13.0,-9999.0,99.0,'11111222,99999999,11144222' 
ADCP,ioos:station:wmo:42362:1,2009-01-18T23:30:00Z,27.7950,-90.6480,122.0,13.0,-9999.0,99.0,'11111222,99999999,11144222' 
ADCP,ioos:station:wmo:42362:1,2009-01-18T23:45:00Z,27.7950,-90.6480,122.0,12.0,-9999.0,99.0,'11111222,99999999,11144222' 